This is the latest recevied weather packets stored in our database for station/object K7DC. If no packets are shown the sender has not sent any weather packets the latest 10 day(s).
| Time | Temp. | Humidity | Pressure | Rain* | Wind** | Luminosity | Snow |
|---|---|---|---|---|---|---|---|
| 1788479103 | 30.56° C | 48% | 1013.7 hPa | 0 mm | - | 83 W/m² | - |
| 1788478799 | 30.56° C | 50% | 1014 hPa | 0 mm | - | 86 W/m² | - |
| 1788478494 | 30.56° C | 51% | 1013.7 hPa | 0 mm | - | 95 W/m² | - |
| 1788478189 | 31.11° C | 51% | 1013.4 hPa | 0 mm | - | 109 W/m² | - |
| 1788477885 | 31.67° C | 49% | 1013.7 hPa | 0 mm | - | 109 W/m² | - |
| 1788477584 | 31.67° C | 45% | 1013.7 hPa | 0 mm | - | 105 W/m² | - |
| 1788477280 | 31.67° C | 45% | 1013.9 hPa | 0 mm | - | 81 W/m² | - |
| 1788476974 | 31.67° C | 45% | 1013.9 hPa | 0 mm | - | 69 W/m² | - |
| 1788476670 | 31.67° C | 44% | 1014 hPa | 0 mm | - | 89 W/m² | - |
| 1788476366 | 31.67° C | 43% | 1013.9 hPa | 0 mm | - | 97 W/m² | - |
| 1788476061 | 32.22° C | 42% | 1013.8 hPa | 0 mm | - | 114 W/m² | - |
| 1788475758 | 32.78° C | 43% | 1013.7 hPa | 0 mm | - | 133 W/m² | - |
| 1788475454 | 33.33° C | 42% | 1013.9 hPa | 0 mm | - | 136 W/m² | - |
| 1788475149 | 33.33° C | 42% | 1013.5 hPa | 0 mm | - | 167 W/m² | - |
| 1788474848 | 34.44° C | 41% | 1013.7 hPa | 0 mm | - | 150 W/m² | - |
| 1788474548 | 35° C | 37% | 1013.8 hPa | 0 mm | - | 163 W/m² | - |
| 1788474243 | 35.56° C | 36% | 1013.4 hPa | 0 mm | - | 188 W/m² | - |
| 1788473943 | 36.67° C | 36% | 1013.2 hPa | 0 mm | - | 238 W/m² | - |
| 1788473642 | 37.22° C | 33% | 1013.4 hPa | 0 mm | - | 340 W/m² | - |
| 1788473340 | 37.22° C | 33% | 1013.5 hPa | 0 mm | - | 387 W/m² | - |
| 1788473034 | 37.78° C | 33% | 1013.7 hPa | 0 mm | - | 794 W/m² | - |
| 1788472732 | 36.67° C | 34% | 1013.7 hPa | 0 mm | - | 811 W/m² | - |
| 1788472429 | 37.22° C | 35% | 1013.4 hPa | 0 mm | - | 872 W/m² | - |
| 1788472127 | 38.33° C | 33% | 1013.4 hPa | 0 mm | - | 266 W/m² | - |
| 1788471824 | 38.33° C | 32% | 1013.5 hPa | 0 mm | - | 822 W/m² | - |
* Rain latest hour (hover to see other rain measurements)
** Current wind speed in m/s (hover to see current wind gust speed)